�N����,����,�~����,�C��,���x,�C��,����,���ϕ���,�ő�u�ԕ���,�ő厞����,���˗�,�I�_���x,�n�����x,�ő啗���N��,DTYPE
"16/05/04","00:10",0.6,17.9,94.0,997.7,273.7,0.8,1.2,327.8,0.00,17.0,17.5,"00:04:32",1
"16/05/04","00:20",1.2,17.9,94.2,998.6,280.2,1.0,2.1,342.3,0.00,17.0,17.7,"00:12:32",1
"16/05/04","00:30",1.0,17.9,94.3,998.4,311.8,1.5,2.8,357.5,0.00,17.0,17.6,"00:27:20",1
"16/05/04","00:40",0.4,18.0,93.8,998.6,294.5,2.0,4.3,315.7,0.00,17.0,17.6,"00:35:04",1
"16/05/04","00:50",0.0,17.5,89.4,998.9,309.2,3.0,5.9,14.7,0.00,15.8,17.6,"00:46:08",1
"16/05/04","01:00",0.4,17.0,87.6,998.6,306.4,3.4,7.0,318.8,0.00,15.0,17.5,"00:57:08",1
"16/05/04","01:10",0.0,16.6,87.6,998.9,303.3,3.7,8.6,291.4,0.00,14.6,17.4,"01:02:26",1
"16/05/04","01:20",0.0,16.4,87.8,998.4,306.7,3.1,5.2,339.5,0.00,14.4,17.5,"01:14:40",1
"16/05/04","01:30",0.0,16.1,87.0,998.6,298.9,2.6,4.9,297.9,0.00,14.0,17.4,"01:26:40",1
"16/05/04","01:40",0.0,15.9,87.1,998.6,304.0,1.8,3.7,264.4,0.00,13.8,17.5,"01:38:48",1
"16/05/04","01:50",0.0,15.9,85.1,999.1,307.8,1.7,3.6,355.2,0.00,13.4,17.5,"01:43:12",1
"16/05/04","02:00",0.0,16.0,83.7,999.3,297.4,1.5,3.9,293.2,0.00,13.3,17.2,"01:51:12",1
"16/05/04","02:10",0.0,16.0,81.4,999.3,272.0,1.2,2.9,232.1,0.00,12.9,17.2,"02:09:04",1
"16/05/04","02:20",0.0,16.0,80.1,999.3,273.4,1.7,3.3,235.2,0.00,12.6,17.3,"02:10:32",1
"16/05/04","02:30",0.0,16.0,80.6,999.8,223.5,1.2,2.8,247.1,0.00,12.7,17.1,"02:22:08",1
"16/05/04","02:40",0.0,16.0,79.5,999.6,225.9,1.7,2.8,241.2,0.00,12.5,17.3,"02:36:40",1
"16/05/04","02:50",0.0,16.0,77.4,999.3,263.2,1.8,4.0,357.8,0.00,12.1,17.4,"02:45:12",1
"16/05/04","03:00",0.0,16.1,74.3,999.8,262.1,2.3,4.7,221.7,0.00,11.6,17.1,"02:53:14",1
"16/05/04","03:10",0.0,16.0,74.7,999.8,257.2,1.7,3.6,245.3,0.00,11.6,17.0,"03:08:40",1
"16/05/04","03:20",0.0,16.1,71.8,1000.0,258.3,2.5,7.3,234.2,0.00,11.1,16.9,"03:17:54",1
"16/05/04","03:30",0.0,16.1,71.7,1000.0,281.0,1.7,3.5,238.5,0.00,11.0,16.8,"03:28:08",1
"16/05/04","03:40",0.0,15.9,68.3,999.6,264.3,2.2,5.5,312.0,0.00,10.1,17.1,"03:39:44",1
"16/05/04","03:50",0.0,16.0,67.0,1000.3,287.6,2.6,5.4,306.4,0.00,9.9,16.7,"03:43:04",1
"16/05/04","04:00",0.0,15.9,67.1,1000.0,282.3,2.2,5.9,240.7,0.00,9.8,16.8,"03:54:48",1
"16/05/04","04:10",0.0,15.8,67.2,1000.0,269.2,1.7,8.2,210.0,0.00,9.8,16.8,"04:08:08",1
"16/05/04","04:20",0.0,15.5,66.2,1000.5,264.5,2.1,5.6,226.9,0.00,9.3,16.8,"04:19:36",1
"16/05/04","04:30",0.0,15.7,63.6,1000.0,261.1,2.8,6.4,224.1,0.00,8.9,16.9,"04:27:44",1
"16/05/04","04:40",0.0,15.7,62.7,1000.0,286.9,2.3,4.7,252.8,0.00,8.7,16.6,"04:30:08",1
"16/05/04","04:50",0.0,15.3,63.0,1000.8,306.5,1.8,5.6,332.5,0.00,8.3,16.5,"04:41:04",1
"16/05/04","05:00",0.0,15.5,61.2,1000.8,259.1,2.6,7.1,233.6,0.00,8.1,16.6,"04:59:28",1
"16/05/04","05:10",0.0,15.5,62.6,1001.2,256.3,1.8,3.9,242.4,0.00,8.4,16.3,"05:00:08",1
"16/05/04","05:20",0.0,15.3,64.4,1001.5,235.6,2.2,5.2,229.6,0.00,8.7,16.2,"05:17:44",1
"16/05/04","05:30",0.0,15.1,65.8,1001.2,268.4,1.8,5.1,223.4,0.00,8.8,16.4,"05:24:24",1
"16/05/04","05:40",0.0,15.0,65.7,1001.5,267.2,1.6,4.1,228.8,0.00,8.7,16.2,"05:35:20",1
"16/05/04","05:50",0.0,15.2,64.5,1001.7,268.2,1.5,5.1,238.6,0.00,8.6,16.3,"05:40:48",1
"16/05/04","06:00",0.0,15.6,63.6,1001.7,251.6,1.8,4.1,234.9,0.02,8.8,16.1,"05:58:16",1
"16/05/04","06:10",0.0,16.0,61.3,1002.2,282.2,1.5,3.6,228.4,0.03,8.6,16.2,"06:04:48",1
"16/05/04","06:20",0.0,16.3,63.5,1002.4,304.6,1.3,3.7,228.2,0.04,9.4,16.2,"06:10:56",1
"16/05/04","06:30",0.0,16.1,62.3,1002.6,116.1,1.2,2.4,308.2,0.06,8.9,16.2,"06:28:56",1
"16/05/04","06:40",0.0,16.5,62.9,1002.9,241.3,1.7,4.7,249.7,0.08,9.5,16.0,"06:34:40",1
"16/05/04","06:50",0.0,16.5,61.9,1002.9,259.9,1.8,3.1,233.6,0.10,9.2,16.1,"06:48:24",1
"16/05/04","07:00",0.0,16.9,61.2,1003.1,244.5,1.7,3.7,223.2,0.13,9.4,16.1,"06:51:04",1
"16/05/04","07:10",0.0,17.0,61.4,1003.1,250.0,2.0,5.0,210.5,0.16,9.6,16.2,"07:03:12",1
"16/05/04","07:20",0.0,17.1,60.0,1002.6,252.1,2.1,4.8,200.4,0.18,9.3,16.2,"07:18:08",1
"16/05/04","07:30",0.0,17.6,58.8,1002.9,257.7,1.2,3.1,263.7,0.21,9.5,16.1,"07:26:56",1
"16/05/04","07:40",0.0,17.7,56.3,1002.9,264.8,1.7,3.5,214.6,0.23,8.9,16.2,"07:37:52",1
"16/05/04","07:50",0.0,17.8,56.3,1003.1,258.3,2.0,4.5,270.7,0.25,9.0,16.2,"07:46:40",1
"16/05/04","08:00",0.0,17.9,55.7,1003.4,254.4,2.5,6.4,204.4,0.28,9.0,16.2,"07:50:56",1
"16/05/04","08:10",0.0,18.1,56.2,1003.4,268.8,2.2,4.3,248.0,0.31,9.3,16.2,"08:03:52",1
"16/05/04","08:20",0.0,18.4,55.5,1003.1,259.2,1.6,3.6,230.0,0.34,9.4,16.5,"08:16:08",1
"16/05/04","08:30",0.0,18.9,54.5,1003.1,272.5,1.5,3.5,247.7,0.37,9.6,16.5,"08:28:56",1
"16/05/04","08:40",0.0,19.1,52.4,1003.1,277.6,2.1,5.8,229.6,0.39,9.2,16.4,"08:32:32",1
"16/05/04","08:50",0.0,19.6,52.6,1003.4,266.6,1.3,4.3,221.4,0.41,9.7,16.6,"08:42:16",1
"16/05/04","09:00",0.0,19.2,54.3,1003.6,238.7,2.5,5.1,230.1,0.43,9.8,16.5,"08:58:40",1
"16/05/04","09:10",0.0,19.9,52.7,1003.1,242.1,1.5,5.8,232.5,0.45,10.0,16.8,"09:09:08",1
"16/05/04","09:20",0.0,19.9,51.0,1003.1,258.5,2.5,7.7,227.6,0.47,9.5,16.7,"09:11:44",1
"16/05/04","09:30",0.0,20.0,49.8,1003.1,249.9,3.0,6.7,207.8,0.49,9.3,16.9,"09:24:32",1
"16/05/04","09:40",0.0,20.1,50.6,1003.1,246.9,2.8,7.7,234.4,0.51,9.6,17.0,"09:31:52",1
"16/05/04","09:50",0.0,21.1,49.2,1002.6,264.8,2.0,5.0,229.6,0.53,10.1,17.2,"09:40:32",1
"16/05/04","10:00",0.0,21.0,45.2,1003.1,254.8,2.5,8.1,206.7,0.54,8.7,17.2,"09:57:04",1
"16/05/04","10:10",0.0,21.4,45.9,1003.1,253.1,3.1,7.9,222.9,0.56,9.3,17.6,"10:03:28",1
"16/05/04","10:20",0.0,21.6,44.4,1002.6,284.6,2.2,4.5,331.0,0.57,9.0,17.7,"10:11:20",1
"16/05/04","10:30",0.0,21.6,44.1,1002.6,282.2,2.1,5.2,300.0,0.58,8.9,17.5,"10:20:16",1
"16/05/04","10:40",0.0,21.9,44.0,1002.4,284.9,2.3,5.1,219.0,0.59,9.1,18.0,"10:31:36",1
"16/05/04","10:50",0.0,22.7,40.6,1002.4,279.3,1.7,5.9,208.7,0.60,8.7,18.1,"10:49:20",1
"16/05/04","11:00",0.0,22.0,42.1,1002.6,258.4,3.5,7.9,236.3,0.61,8.6,18.2,"10:59:28",1
"16/05/04","11:10",0.0,22.5,42.0,1002.4,254.8,2.1,5.2,225.2,0.61,9.0,18.5,"11:09:20",1
"16/05/04","11:20",0.0,23.2,46.9,1001.9,315.0,2.2,4.4,348.6,0.62,11.3,18.5,"11:12:16",1
"16/05/04","11:30",0.0,23.1,42.0,1001.7,319.6,2.3,4.3,345.8,0.62,9.5,18.9,"11:25:04",1
"16/05/04","11:40",0.0,22.9,39.0,1001.9,264.4,2.6,6.7,241.0,0.62,8.3,18.9,"11:35:44",1
"16/05/04","11:50",0.0,23.1,38.7,1001.7,280.6,1.7,3.9,319.0,0.62,8.3,19.2,"11:40:02",1
"16/05/04","12:00",0.0,23.3,38.1,1001.7,269.3,2.0,5.6,226.9,0.56,8.3,19.5,"11:57:04",1
"16/05/04","12:10",0.0,23.1,37.1,1001.2,323.3,3.4,6.7,316.8,0.59,7.7,19.6,"12:01:52",1
"16/05/04","12:20",0.0,23.6,36.2,1001.2,305.4,2.2,5.7,354.8,0.62,7.8,19.7,"12:12:56",1
"16/05/04","12:30",0.0,23.8,37.4,1001.0,296.4,2.6,5.8,333.5,0.54,8.4,19.7,"12:21:28",1
"16/05/04","12:40",0.0,24.3,34.8,1001.2,298.3,2.1,5.0,345.3,0.59,7.8,19.9,"12:30:56",1
"16/05/04","12:50",0.0,23.1,33.4,1001.0,303.7,2.2,4.3,338.2,0.43,6.2,20.1,"12:44:08",1
"16/05/04","13:00",0.0,24.0,33.0,1000.5,295.8,2.3,6.2,331.9,0.51,6.8,20.0,"12:59:36",1
"16/05/04","13:10",0.0,24.2,32.1,1000.8,250.6,3.4,7.8,214.9,0.62,6.6,20.4,"13:08:56",1
"16/05/04","13:20",0.0,24.4,33.5,1000.5,248.8,3.0,8.2,225.7,0.61,7.4,20.3,"13:17:20",1
"16/05/04","13:30",0.0,24.2,30.6,1000.5,280.6,2.7,8.2,222.5,0.51,5.9,20.3,"13:29:12",1
"16/05/04","13:40",0.0,24.7,33.6,1000.3,282.2,2.1,5.0,333.8,0.58,7.7,20.3,"13:38:16",1
"16/05/04","13:50",0.0,24.6,30.3,1000.0,256.9,3.1,8.9,215.0,0.58,6.1,20.4,"13:40:16",1
"16/05/04","14:00",0.0,24.3,32.6,999.6,265.5,2.7,7.0,226.7,0.41,6.9,20.2,"13:50:08",1
"16/05/04","14:10",0.0,24.8,30.4,1000.0,301.0,3.1,6.2,339.8,0.44,6.3,20.2,"14:01:04",1
"16/05/04","14:20",0.0,23.5,31.2,999.6,298.0,2.3,5.5,350.7,0.20,5.5,20.5,"14:10:16",1
"16/05/04","14:30",0.0,23.8,32.8,999.6,279.0,1.7,4.0,279.2,0.20,6.5,20.3,"14:20:02",1
"16/05/04","14:40",0.0,23.6,31.3,999.6,266.1,3.0,8.2,230.3,0.30,5.7,20.4,"14:35:52",1
"16/05/04","14:50",0.0,25.0,30.5,999.6,255.4,2.2,5.8,246.7,0.38,6.5,20.3,"14:40:24",1
"16/05/04","15:00",0.0,23.5,32.7,999.6,254.1,1.8,5.1,239.9,0.14,6.2,20.4,"14:51:28",1
"16/05/04","15:10",0.0,23.4,33.7,999.6,239.6,3.1,10.8,216.8,0.14,6.6,20.4,"15:06:02",1
"16/05/04","15:20",0.0,23.2,32.7,999.8,246.5,3.6,7.9,228.2,0.13,6.0,20.3,"15:16:16",1
"16/05/04","15:30",0.0,24.5,30.5,999.3,277.3,2.5,5.7,347.3,0.37,6.1,20.3,"15:23:36",1
"16/05/04","15:40",0.0,24.6,30.8,999.3,276.4,2.3,5.1,321.8,0.31,6.3,20.3,"15:30:24",1
"16/05/04","15:50",0.0,24.8,29.5,999.3,249.0,2.6,6.6,231.4,0.32,5.9,20.2,"15:45:20",1
"16/05/04","16:00",0.0,24.6,29.3,999.6,249.2,3.0,8.7,232.5,0.29,5.6,20.3,"15:53:36",1
"16/05/04","16:10",0.0,24.8,30.5,999.6,242.6,2.1,5.6,287.5,0.27,6.3,20.2,"16:03:28",1
"16/05/04","16:20",0.0,24.3,36.0,998.9,219.7,2.1,4.7,227.4,0.21,8.3,20.4,"16:18:48",1
"16/05/04","16:30",0.0,23.8,36.5,999.1,215.7,3.0,6.5,224.9,0.22,8.1,20.2,"16:24:40",1
"16/05/04","16:40",0.0,23.4,37.3,999.6,205.7,3.5,6.5,198.2,0.16,8.1,20.2,"16:36:00",1
"16/05/04","16:50",0.0,23.2,38.3,999.3,205.8,3.0,5.1,190.8,0.14,8.3,20.2,"16:40:40",1
"16/05/04","17:00",0.0,22.9,38.1,999.3,235.4,2.7,5.5,236.9,0.08,7.9,20.0,"16:57:28",1
"16/05/04","17:10",0.0,22.8,38.6,999.6,218.8,2.5,5.2,218.3,0.04,8.0,20.0,"17:07:28",1
"16/05/04","17:20",0.0,22.6,37.8,999.6,216.7,2.7,4.8,234.3,0.03,7.5,19.7,"17:19:52",1
"16/05/04","17:30",0.0,22.4,39.8,999.3,220.7,3.1,5.9,243.4,0.02,8.1,20.0,"17:28:56",1
"16/05/04","17:40",0.0,22.3,41.1,1000.0,223.9,2.1,4.7,180.5,0.02,8.5,19.9,"17:33:52",1
"16/05/04","17:50",0.0,22.2,41.3,999.8,220.5,1.7,4.0,199.7,0.01,8.5,19.9,"17:40:48",1
"16/05/04","18:00",0.0,21.9,40.8,1000.0,227.0,1.7,3.6,222.9,0.01,8.0,19.5,"17:50:24",1
"16/05/04","18:10",0.0,21.6,41.8,1000.0,224.5,1.6,3.4,174.7,0.00,8.1,19.6,"18:08:40",1
"16/05/04","18:20",0.0,21.4,41.4,999.8,218.4,1.8,3.5,216.6,0.00,7.8,19.7,"18:19:12",1
"16/05/04","18:30",0.0,21.1,42.2,1000.0,204.3,1.8,3.7,203.8,0.00,7.8,19.3,"18:26:48",1
"16/05/04","18:40",0.0,21.1,41.3,1000.0,212.5,2.1,4.9,190.1,0.00,7.5,19.3,"18:39:20",1
"16/05/04","18:50",0.0,20.8,43.3,1000.5,198.7,1.3,2.7,199.1,0.00,7.9,19.4,"18:46:24",1
"16/05/04","19:00",0.0,20.5,41.9,1000.5,223.0,1.2,3.4,207.6,0.00,7.2,19.3,"18:58:24",1
"16/05/04","19:10",0.0,20.3,42.2,1000.5,235.5,0.8,2.4,234.8,0.00,7.1,19.1,"19:02:16",1
"16/05/04","19:20",0.0,19.5,46.8,1001.0,18.2,1.2,2.7,330.1,0.00,7.9,19.1,"19:18:48",1
"16/05/04","19:30",0.0,18.4,52.6,1000.8,323.3,1.2,2.1,342.4,0.00,8.6,18.8,"19:20:32",1
"16/05/04","19:40",0.0,17.6,56.4,1001.0,321.2,1.2,1.9,342.1,0.00,8.9,18.8,"19:38:32",1
"16/05/04","19:50",0.0,16.9,58.9,1001.0,319.0,1.3,2.0,334.1,0.00,8.9,18.7,"19:42:56",1
"16/05/04","20:00",0.0,16.4,58.6,1001.0,314.0,1.2,1.9,322.5,0.00,8.3,18.8,"19:52:00",1
"16/05/04","20:10",0.0,16.1,60.3,1001.2,307.4,1.2,1.7,339.2,0.00,8.5,18.6,"20:04:32",1
"16/05/04","20:20",0.0,15.8,61.3,1001.5,309.5,0.8,1.6,320.4,0.00,8.4,18.6,"20:11:52",1
"16/05/04","20:30",0.0,15.3,66.2,1001.2,321.4,1.1,2.2,306.5,0.00,9.1,18.4,"20:28:08",1
"16/05/04","20:40",0.0,14.7,66.7,1001.9,296.6,1.0,2.0,272.1,0.00,8.6,18.3,"20:31:44",1
"16/05/04","20:50",0.0,14.5,66.2,1002.2,314.1,1.0,2.1,319.9,0.00,8.3,18.1,"20:45:44",1
"16/05/04","21:00",0.0,14.5,66.1,1002.2,317.0,1.1,1.9,324.4,0.00,8.3,18.2,"20:50:48",1
"16/05/04","21:10",0.0,14.2,68.8,1002.4,317.3,1.1,1.7,330.6,0.00,8.6,18.3,"21:06:16",1
"16/05/04","21:20",0.0,14.1,67.5,1002.6,323.0,1.1,1.9,269.0,0.00,8.2,17.7,"21:13:12",1
"16/05/04","21:30",0.0,14.1,70.1,1002.9,303.6,1.2,2.2,305.2,0.00,8.8,18.0,"21:28:56",1
"16/05/04","21:40",0.0,13.8,69.9,1002.9,342.6,1.0,2.0,295.9,0.00,8.4,17.7,"21:37:20",1
"16/05/04","21:50",0.0,14.0,68.1,1002.9,313.5,1.1,2.4,309.9,0.00,8.3,17.7,"21:45:20",1
"16/05/04","22:00",0.0,14.1,67.2,1003.1,320.2,1.0,2.7,320.2,0.00,8.2,17.7,"21:56:08",1
"16/05/04","22:10",0.0,14.2,67.6,1003.4,315.2,1.1,2.5,302.6,0.00,8.3,17.6,"22:08:24",1
"16/05/04","22:20",0.0,14.1,69.1,1003.4,333.5,1.2,2.1,320.4,0.00,8.6,17.5,"22:16:00",1
"16/05/04","22:30",0.0,13.7,71.0,1003.4,320.3,0.8,1.7,316.6,0.00,8.6,17.6,"22:23:28",1
"16/05/04","22:40",0.0,13.3,73.1,1003.4,313.3,1.1,2.4,323.8,0.00,8.6,17.4,"22:31:12",1
"16/05/04","22:50",0.0,13.3,72.6,1003.6,304.3,1.5,2.6,314.1,0.00,8.5,17.4,"22:48:24",1
"16/05/04","23:00",0.0,13.4,73.2,1003.1,296.3,1.1,1.9,263.6,0.00,8.7,17.2,"22:52:48",1
"16/05/04","23:10",0.0,13.3,73.3,1003.6,293.8,1.1,1.9,336.6,0.00,8.7,17.2,"23:02:24",1
"16/05/04","23:20",0.0,13.3,72.6,1003.8,300.0,1.1,1.9,301.4,0.00,8.5,17.2,"23:19:36",1
"16/05/04","23:30",0.0,13.5,71.8,1003.4,309.7,1.5,2.4,318.9,0.00,8.6,16.8,"23:29:06",1
"16/05/04","23:40",0.0,14.4,66.3,1003.8,305.3,1.3,2.2,341.0,0.00,8.2,17.0,"23:39:12",1
"16/05/04","23:50",0.0,15.6,60.5,1003.8,322.6,1.7,2.8,337.9,0.00,8.0,16.8,"23:43:04",1
"16/05/04","24:00",0.0,16.5,56.4,1004.1,325.1,2.0,3.6,322.8,0.00,7.8,16.9,"23:59:44",1
